EW2482 Weather Reports


time (UTC)temp
C
wind
direction
speed
KPH
gust
KPH
rain 1hr
cm
rain 24hr
cm
rain mn
cm
humidity
%
barometer
mb
20260503224549 13 184 1.6 14.5 0.00 0.00 0.00 46 1012.2
20260503223048 13 212 1.6 16.1 0.00 0.00 0.00 46 1012.4
20260503221547 13 244 0.0 14.5 0.00 0.00 0.00 46 1012.4
20260503220048 14 126 3.2 19.3 0.00 0.00 0.00 45 1012.4
20260503214548 14 167 0.0 12.9 0.00 0.03 0.00 45 1012.4
20260503213046 14 232 3.2 12.9 0.00 0.03 0.00 45 1012.4
20260503211545 15 300 1.6 16.1 0.00 0.03 0.00 45 1012.5
20260503210044 15 200 0.0 12.9 0.00 0.03 0.00 45 1012.6
20260503204544 15 197 1.6 17.7 0.00 0.03 0.00 44 1012.6
20260503203049 15 186 3.2 16.1 0.00 0.03 0.00 43 1012.5
20260503201544 15 200 3.2 16.1 0.00 0.03 0.00 43 1012.7
20260503200039 14 182 3.2 22.5 0.00 0.03 0.00 44 1013.0
20260503194537 15 253 1.6 27.4 0.00 0.03 0.00 43 1013.4
20260503193040 15 228 4.8 17.7 0.00 0.03 0.00 45 1013.6
20260503191538 15 239 1.6 19.3 0.00 0.03 0.00 44 1013.9
20260503190036 15 194 3.2 19.3 0.00 0.03 0.00 48 1014.1
20260503184531 14 279 1.6 22.5 0.00 0.03 0.00 44 1014.3
20260503183029 15 222 1.6 16.1 0.00 0.03 0.00 43 1014.5
20260503181527 15 214 3.2 17.7 0.00 0.03 0.00 47 1014.6
20260503180032 15 195 0.0 17.7 0.00 0.03 0.00 46 1014.8
20260503174521 14 214 0.0 19.3 0.00 0.03 0.00 48 1014.9
20260503173021 14 263 1.6 16.1 0.00 0.03 0.00 50 1015.1
20260503171519 15 215 1.6 12.9 0.00 0.03 0.00 51 1015.3
20260503081530 1 51 0.0 0.0 0.00 0.08 0.00 86 1016.5
20260503071526 1 51 0.0 0.0 0.00 0.08 0.00 85 1016.4
20260503054518 2 51 0.0 0.0 0.00 0.10 0.00 81 1016.7
20260503053014 2 51 0.0 0.0 0.00 0.10 0.00 79 1016.7
20260503051512 2 51 0.0 0.0 0.00 0.10 0.00 78 1016.6
20260503050009 3 51 0.0 0.0 0.00 0.10 0.00 78 1016.8
20260503044507 3 51 0.0 0.0 0.00 0.30 0.00 77 1016.7
20260503043047 3 51 0.0 0.0 0.00 0.30 0.00 78 1016.8
20260503041535 3 51 0.0 0.0 0.00 0.30 0.00 77 1016.8
20260503040020 3 50 0.0 0.0 0.00 0.30 0.00 77 1016.9
20260503034518 3 49 0.0 0.0 0.00 0.36 0.30 77 1016.9
20260503031648 4 47 0.0 0.0 0.00 0.36 0.30 75 1017.0
20260503030132 4 47 0.0 0.0 0.00 0.36 0.30 74 1017.2
20260503024640 4 46 0.0 0.0 0.00 0.36 0.30 74 1017.2
20260503023142 3 26 0.0 0.0 0.00 0.36 0.30 74 1017.4
20260503021634 3 26 0.0 0.0 0.00 0.36 0.30 74 1017.3
20260503020144 4 26 0.0 0.0 0.00 0.36 0.30 74 1017.3
20260503014639 4 26 0.0 0.0 0.00 0.36 0.30 73 1017.4
20260503013131 4 26 0.0 0.0 0.00 0.36 0.30 72 1017.2
20260503011638 4 26 0.0 0.0 0.00 0.36 0.30 70 1017.2
20260503010142 5 26 0.0 0.0 0.00 0.36 0.30 69 1017.2
20260503004630 5 26 0.0 0.0 0.00 0.36 0.30 68 1017.1
20260503003144 5 26 0.0 0.0 0.00 0.36 0.30 66 1017.1
20260503001634 5 28 0.0 0.0 0.00 0.36 0.30 65 1017.1
20260503000136 5 28 0.0 0.0 0.00 0.36 0.30 65 1017.1
20260502234644 5 28 0.0 0.0 0.00 0.36 0.30 63 1017.0
20260502233133 5 28 0.0 0.0 0.00 0.36 0.30 64 1017.0
20260502231644 5 28 0.0 0.0 0.00 0.36 0.30 64 1017.0
20260502230135 5 28 0.0 1.6 0.00 0.36 0.30 63 1017.0